Terminal Aerodrome Forecast
Issued by NWS

Home | Current Version | Previous Version | Text Only | Print | Product List | Glossary On
Versions: 1 2 3 4 5 6 7 8 9 10 11 12 13 14 15 16
784
FTUS45 KABQ 230532
TAFLVS
TAF
KLVS 230532Z 2306/2406 23012G18KT P6SM FEW070 BKN120
     FM230800 21018G28KT P6SM SCT100
     FM231400 24032G42KT P6SM SCT080
     FM231800 27035G45KT P6SM SKC
      AMD NOT SKED=

USA.gov is the U.S. government's official web portal to all federal, state and local government web resources and services.